Back to catalog

SL-8 DEB

AliveUNKNOWN
NORAD 21919·DEBRIS·🇷🇺 Russia

Launched Feb 12, 1991 from Plesetsk Cosmodrome

Loading…

Next Passes (next 24 hours)

TLE

FreshSource: Space-Track

Epoch: Sep 14, 2026, 07:13 UTC

1 21919U 91009CC  26257.30075057  .00000205  00000-0  31049-2 0  9996
2 21919  74.0709   6.9801 0355020 248.5794 136.1285 11.75204165519080

Track SL-8 DEB in real time with AllMySat

Download on the App Store